Voltar ao catálogo

SL-12 R/B(2)

AtivoGEO
NORAD 23656·ROCKET BODY·🇷🇺 Russia

Lançado Aug 30, 1995 de Baikonur Cosmodrome

Loading…

TLE

AtualizadoSource: Space-Track

Época: Sep 14, 2026, 14:13 UTC

1 23656U 95045D   26257.59253427 -.00000207  00000-0  00000-0 0  9994
2 23656  14.3957 352.3348 0017133  58.3437 310.4479  1.00189443113560

Acompanhe SL-12 R/B(2) em tempo real com AllMySat

Download on the App Store